NOZ40T ENGM-ENVA

Flight info

Callsign NOZ40T
Flight time 0h 46m
Altitude 32000
Route RIBBE DCT GIGNI DCT VEVOD
Aircraft B738/M-SDE2E3FGHIRWXY/LB1

Departure

Time 2026-05-07 21:00
Airport Oslo-Gardermoen International Airport (ENGM)

Arrival

Time 2026-05-07 21:46
Airport Trondheim Airport, Værnes (ENVA)
Time Latitude Longitude Altitude Speed Heading
2026-05-07 20:37 60.19475 11.09344 684 ft 0 kts 18°
2026-05-07 20:47 60.19472 11.09342 684 ft 3 kts 17°
2026-05-07 20:47 60.19448 11.09326 679 ft 4 kts 27°
2026-05-07 20:47 60.19430 11.09303 679 ft 4 kts 44°
2026-05-07 20:47 60.19416 11.09259 679 ft 4 kts 62°
2026-05-07 20:48 60.19405 11.09217 678 ft 4 kts 76°
2026-05-07 20:48 60.19404 11.09166 682 ft 3 kts 105°
2026-05-07 20:48 60.19405 11.09160 682 ft 2 kts 106°
2026-05-07 20:52 60.19405 11.09162 682 ft 0 kts 106°
2026-05-07 20:53 60.19410 11.09217 680 ft 5 kts 49°
2026-05-07 20:53 60.19439 11.09194 682 ft 6 kts 297°
2026-05-07 20:53 60.19459 11.09066 682 ft 13 kts 287°
2026-05-07 20:53 60.19490 11.08855 683 ft 18 kts 286°
2026-05-07 20:54 60.19526 11.08608 674 ft 16 kts 291°
2026-05-07 20:54 60.19622 11.08583 677 ft 15 kts 15°
2026-05-07 20:54 60.19725 11.08643 674 ft 16 kts 16°
2026-05-07 20:54 60.19846 11.08713 676 ft 20 kts 15°
2026-05-07 20:55 60.19991 11.08796 679 ft 23 kts 15°
2026-05-07 20:55 60.20158 11.08893 680 ft 26 kts 16°
2026-05-07 20:55 60.20343 11.09001 681 ft 29 kts 16°
2026-05-07 20:55 60.20546 11.09117 681 ft 31 kts 16°
2026-05-07 20:56 60.20762 11.09242 683 ft 33 kts 16°
2026-05-07 20:56 60.20979 11.09368 685 ft 31 kts 16°
2026-05-07 20:56 60.21181 11.09484 679 ft 29 kts 16°
2026-05-07 20:56 60.21370 11.09593 686 ft 27 kts 16°
2026-05-07 20:57 60.21490 11.09636 681 ft 14 kts 345°
2026-05-07 20:57 60.21550 11.09484 683 ft 12 kts 286°
2026-05-07 20:57 60.21559 11.09422 683 ft 0 kts 286°
2026-05-07 20:58 60.21561 11.09410 683 ft 2 kts 286°
2026-05-07 20:58 60.21572 11.09327 681 ft 10 kts 286°
2026-05-07 20:59 60.21591 11.09182 683 ft 10 kts 272°
2026-05-07 20:59 60.21566 11.09145 681 ft 0 kts 197°
2026-05-07 20:59 60.21551 11.09135 683 ft 10 kts 197°
2026-05-07 20:59 60.21236 11.08952 681 ft 84 kts 196°
2026-05-07 21:00 60.20452 11.08502 678 ft 147 kts 195°
2026-05-07 21:00 60.19399 11.07893 1100 ft 163 kts 195°
2026-05-07 21:00 60.18296 11.07236 1883 ft 166 kts 196°
2026-05-07 21:00 60.17156 11.06491 2502 ft 186 kts 204°
2026-05-07 21:01 60.16153 11.04595 2785 ft 215 kts 241°
2026-05-07 21:01 60.15507 11.01758 3182 ft 230 kts 245°
2026-05-07 21:01 60.14835 10.98683 3517 ft 252 kts 245°
2026-05-07 21:01 60.14223 10.95299 4099 ft 264 kts 261°
2026-05-07 21:02 60.14360 10.91599 5028 ft 268 kts 281°
2026-05-07 21:02 60.14781 10.87976 6051 ft 267 kts 282°
2026-05-07 21:02 60.15202 10.84326 6931 ft 270 kts 289°
2026-05-07 21:02 60.16239 10.81213 7778 ft 273 kts 319°
2026-05-07 21:03 60.17931 10.79493 8639 ft 278 kts 345°
2026-05-07 21:03 60.19862 10.78943 9463 ft 283 kts 353°
2026-05-07 21:03 60.21847 10.78721 10229 ft 290 kts
2026-05-07 21:03 60.23817 10.80042 10598 ft 315 kts 32°
2026-05-07 21:04 60.25491 10.83026 10871 ft 336 kts 44°
2026-05-07 21:04 60.27152 10.86459 11437 ft 346 kts 45°
2026-05-07 21:04 60.28834 10.89988 12201 ft 350 kts 44°
2026-05-07 21:04 60.30537 10.93546 13022 ft 354 kts 44°
2026-05-07 21:05 60.32271 10.97136 13786 ft 360 kts 43°
2026-05-07 21:05 60.34043 11.00781 14476 ft 366 kts 43°
2026-05-07 21:05 60.35844 11.04477 15215 ft 370 kts 43°
2026-05-07 21:05 60.37663 11.08207 15977 ft 375 kts 42°
2026-05-07 21:06 60.39508 11.11989 16719 ft 380 kts 42°
2026-05-07 21:06 60.41381 11.15834 17445 ft 385 kts 42°
2026-05-07 21:06 60.43245 11.19669 18176 ft 390 kts 41°
2026-05-07 21:06 60.45359 11.23066 18775 ft 387 kts 22°
2026-05-07 21:07 60.47858 11.25019 19465 ft 384 kts 13°
2026-05-07 21:07 60.50395 11.26749 20204 ft 386 kts 13°
2026-05-07 21:07 60.52951 11.28489 20873 ft 389 kts 13°
2026-05-07 21:07 60.55530 11.30268 21533 ft 392 kts 13°
2026-05-07 21:08 60.58123 11.32084 22212 ft 396 kts 13°
2026-05-07 21:08 60.60734 11.33933 22847 ft 399 kts 13°
2026-05-07 21:08 60.63363 11.35807 23493 ft 402 kts 12°
2026-05-07 21:08 60.66014 11.37706 24047 ft 405 kts 12°
2026-05-07 21:09 60.68651 11.39597 24552 ft 407 kts 12°
2026-05-07 21:09 60.71331 11.41520 25040 ft 410 kts 12°
2026-05-07 21:09 60.74035 11.43460 25536 ft 412 kts 11°
2026-05-07 21:09 60.76794 11.44730 25993 ft 402 kts 358°
2026-05-07 21:10 60.79581 11.45080 26527 ft 400 kts 355°
2026-05-07 21:10 60.82359 11.45308 27176 ft 398 kts 354°
2026-05-07 21:10 60.85112 11.45540 27953 ft 394 kts 354°
2026-05-07 21:10 60.87838 11.45808 28717 ft 390 kts 354°
2026-05-07 21:11 60.90536 11.46107 29415 ft 387 kts 354°
2026-05-07 21:11 60.93221 11.46424 30010 ft 386 kts 354°
2026-05-07 21:11 60.98571 11.47082 30984 ft 385 kts 353°
2026-05-07 21:12 61.01245 11.47415 31409 ft 385 kts 353°
2026-05-07 21:12 61.03928 11.47749 31811 ft 386 kts 353°
2026-05-07 21:12 61.06575 11.48080 32157 ft 388 kts 353°
2026-05-07 21:12 61.09278 11.48323 32146 ft 389 kts 351°
2026-05-07 21:13 61.14658 11.48335 32151 ft 381 kts 349°
2026-05-07 21:13 61.19950 11.48271 32164 ft 382 kts 350°
2026-05-07 21:14 61.25283 11.48257 32164 ft 383 kts 350°
2026-05-07 21:14 61.30586 11.48273 32168 ft 384 kts 350°
2026-05-07 21:15 61.35947 11.48294 32153 ft 385 kts 350°
2026-05-07 21:15 61.41290 11.48314 32162 ft 384 kts 350°
2026-05-07 21:16 61.46630 11.48331 32174 ft 383 kts 350°
2026-05-07 21:16 61.51914 11.48349 32156 ft 381 kts 350°
2026-05-07 21:17 61.57196 11.48368 32182 ft 379 kts 350°
2026-05-07 21:17 61.62457 11.48383 32179 ft 378 kts 350°
2026-05-07 21:18 61.67717 11.48398 32182 ft 377 kts 350°
2026-05-07 21:18 61.72963 11.48415 31898 ft 374 kts 350°
2026-05-07 21:19 61.75537 11.48432 31663 ft 367 kts 349°
2026-05-07 21:19 61.78047 11.48444 31283 ft 364 kts 349°
2026-05-07 21:19 61.80570 11.48452 30921 ft 361 kts 349°
2026-05-07 21:19 61.83070 11.48459 30547 ft 358 kts 349°
2026-05-07 21:20 61.85545 11.48465 30183 ft 354 kts 349°
2026-05-07 21:20 61.88001 11.48472 29775 ft 351 kts 349°
2026-05-07 21:20 61.90430 11.48479 29422 ft 347 kts 349°
2026-05-07 21:20 61.92836 11.48485 29048 ft 343 kts 349°
2026-05-07 21:21 61.95219 11.48491 28654 ft 340 kts 349°
2026-05-07 21:21 61.96782 11.48497 28440 ft 337 kts 349°
2026-05-07 21:21 61.99116 11.48506 28063 ft 334 kts 349°
2026-05-07 21:21 62.01420 11.48347 27622 ft 328 kts 345°
2026-05-07 21:22 62.04419 11.47707 26683 ft 329 kts 343°
2026-05-07 21:22 62.05967 11.47311 26097 ft 334 kts 344°
2026-05-07 21:22 62.08286 11.46711 25566 ft 333 kts 344°
2026-05-07 21:22 62.10563 11.46137 25127 ft 334 kts 345°
2026-05-07 21:23 62.12870 11.45571 24774 ft 332 kts 345°
2026-05-07 21:23 62.15159 11.45020 24412 ft 330 kts 345°
2026-05-07 21:23 62.17445 11.44476 24062 ft 329 kts 345°
2026-05-07 21:23 62.19718 11.43939 23692 ft 328 kts 346°
2026-05-07 21:24 62.21978 11.43407 23278 ft 326 kts 346°
2026-05-07 21:24 62.24223 11.42881 22898 ft 324 kts 346°
2026-05-07 21:24 62.26458 11.42359 22569 ft 321 kts 346°
2026-05-07 21:24 62.28670 11.41839 22211 ft 318 kts 346°
2026-05-07 21:25 62.30868 11.41321 21868 ft 316 kts 346°
2026-05-07 21:25 62.33041 11.40809 21551 ft 313 kts 346°
2026-05-07 21:25 62.35199 11.40300 21198 ft 311 kts 346°
2026-05-07 21:25 62.37341 11.39794 20904 ft 308 kts 346°
2026-05-07 21:26 62.39444 11.39296 20561 ft 307 kts 346°
2026-05-07 21:26 62.41562 11.38793 20227 ft 305 kts 346°
2026-05-07 21:26 62.43664 11.38294 19910 ft 303 kts 346°
2026-05-07 21:26 62.45750 11.37798 19587 ft 301 kts 347°
2026-05-07 21:27 62.47830 11.37303 19277 ft 299 kts 347°
2026-05-07 21:27 62.49896 11.36810 18944 ft 298 kts 347°
2026-05-07 21:27 62.51956 11.36318 18638 ft 297 kts 347°
2026-05-07 21:27 62.54008 11.35827 18303 ft 296 kts 347°
2026-05-07 21:28 62.56058 11.35336 17955 ft 295 kts 347°
2026-05-07 21:28 62.58070 11.34854 17575 ft 292 kts 347°
2026-05-07 21:28 62.60087 11.34371 17252 ft 290 kts 348°
2026-05-07 21:28 62.62087 11.33891 16945 ft 288 kts 348°
2026-05-07 21:29 62.64082 11.33410 16644 ft 289 kts 348°
2026-05-07 21:29 62.66086 11.32924 16335 ft 291 kts 348°
2026-05-07 21:29 62.68124 11.32428 16062 ft 299 kts 348°
2026-05-07 21:29 62.70212 11.31921 15742 ft 303 kts 349°
2026-05-07 21:30 62.72308 11.31416 15391 ft 302 kts 349°
2026-05-07 21:30 62.74388 11.30917 15069 ft 299 kts 349°
2026-05-07 21:30 62.76445 11.30421 14764 ft 296 kts 349°
2026-05-07 21:30 62.78484 11.29926 14457 ft 294 kts 349°
2026-05-07 21:31 62.80510 11.29434 14163 ft 291 kts 349°
2026-05-07 21:31 62.82493 11.28951 13850 ft 289 kts 349°
2026-05-07 21:31 62.84494 11.28598 13561 ft 287 kts 353°
2026-05-07 21:31 62.86485 11.28457 13248 ft 286 kts 354°
2026-05-07 21:32 62.88474 11.28351 12931 ft 284 kts 354°
2026-05-07 21:32 62.90447 11.28238 12638 ft 282 kts 354°
2026-05-07 21:32 62.92408 11.28109 12344 ft 281 kts 354°
2026-05-07 21:32 62.94364 11.27970 12046 ft 280 kts 354°
2026-05-07 21:33 62.96322 11.27826 11620 ft 284 kts 354°
2026-05-07 21:33 62.98272 11.27674 11304 ft 283 kts 352°
2026-05-07 21:33 63.00130 11.26575 10961 ft 273 kts 324°
2026-05-07 21:33 63.01545 11.23937 10735 ft 263 kts 308°
2026-05-07 21:34 63.02703 11.20822 10441 ft 261 kts 303°
2026-05-07 21:34 63.03795 11.17637 10183 ft 259 kts 303°
2026-05-07 21:34 63.04857 11.14516 10075 ft 250 kts 303°
2026-05-07 21:34 63.05898 11.11472 9838 ft 250 kts 303°
2026-05-07 21:35 63.06961 11.08372 9564 ft 256 kts 303°
2026-05-07 21:35 63.08039 11.05244 9283 ft 262 kts 303°
2026-05-07 21:35 63.09157 11.02015 8994 ft 267 kts 304°
2026-05-07 21:35 63.10288 10.98753 8705 ft 267 kts 304°
2026-05-07 21:36 63.11416 10.95508 8415 ft 265 kts 304°
2026-05-07 21:36 63.12534 10.92289 8127 ft 262 kts 304°
2026-05-07 21:36 63.13643 10.89094 7843 ft 260 kts 304°
2026-05-07 21:36 63.14744 10.85920 7572 ft 259 kts 304°
2026-05-07 21:37 63.15838 10.82759 7292 ft 258 kts 304°
2026-05-07 21:37 63.16926 10.79609 7019 ft 257 kts 305°
2026-05-07 21:37 63.18011 10.76467 6747 ft 257 kts 305°
2026-05-07 21:37 63.19095 10.73321 6472 ft 257 kts 305°
2026-05-07 21:38 63.20158 10.70234 6301 ft 251 kts 305°
2026-05-07 21:38 63.21201 10.67199 6177 ft 243 kts 305°
2026-05-07 21:38 63.22210 10.64263 6069 ft 237 kts 305°
2026-05-07 21:38 63.23309 10.61565 5922 ft 238 kts 325°
2026-05-07 21:39 63.24831 10.60135 5785 ft 239 kts 340°
2026-05-07 21:39 63.26415 10.58913 5570 ft 242 kts 340°
2026-05-07 21:39 63.28010 10.57668 5366 ft 242 kts 340°
2026-05-07 21:39 63.29585 10.56430 5159 ft 239 kts 340°
2026-05-07 21:40 63.31141 10.55199 4948 ft 236 kts 340°
2026-05-07 21:40 63.32674 10.53981 4748 ft 232 kts 340°
2026-05-07 21:40 63.34192 10.52770 4566 ft 230 kts 340°
2026-05-07 21:40 63.35651 10.51604 4399 ft 221 kts 340°
2026-05-07 21:41 63.37087 10.50456 4187 ft 212 kts 339°
2026-05-07 21:41 63.38466 10.49449 3996 ft 208 kts 349°
2026-05-07 21:41 63.39878 10.49932 3824 ft 207 kts 21°
2026-05-07 21:41 63.41182 10.51068 3615 ft 200 kts 20°
2026-05-07 21:42 63.42467 10.52132 3413 ft 193 kts 20°
2026-05-07 21:42 63.43708 10.53156 3188 ft 187 kts 20°
2026-05-07 21:42 63.44890 10.54274 3030 ft 182 kts 36°
2026-05-07 21:42 63.45543 10.56565 2985 ft 181 kts 81°
2026-05-07 21:43 63.45697 10.59424 2748 ft 188 kts 84°
2026-05-07 21:43 63.45816 10.62322 2485 ft 185 kts 88°
2026-05-07 21:43 63.45838 10.65093 2247 ft 172 kts 91°
2026-05-07 21:43 63.45830 10.67682 1999 ft 161 kts 92°
2026-05-07 21:44 63.45820 10.70158 1783 ft 158 kts 92°
2026-05-07 21:44 63.45811 10.72575 1592 ft 150 kts 91°
2026-05-07 21:44 63.45804 10.74845 1347 ft 143 kts 91°
2026-05-07 21:44 63.45797 10.77010 1126 ft 140 kts 91°
2026-05-07 21:45 63.45789 10.79187 947 ft 141 kts 90°
2026-05-07 21:45 63.45777 10.81401 737 ft 143 kts 90°
2026-05-07 21:45 63.45776 10.83633 552 ft 143 kts 90°
2026-05-07 21:45 63.45776 10.85855 356 ft 141 kts 90°
2026-05-07 21:46 63.45768 10.87999 161 ft 135 kts 91°
2026-05-07 21:46 63.45763 10.90091 32 ft 129 kts 90°
2026-05-07 21:46 63.45760 10.91681 37 ft 73 kts 90°
2026-05-07 21:46 63.45759 10.92324 40 ft 15 kts 90°
2026-05-07 21:47 63.45710 10.92420 41 ft 10 kts 174°
2026-05-07 21:47 63.45657 10.92425 41 ft 7 kts 182°
2026-05-07 21:47 63.45608 10.92423 41 ft 7 kts 179°
2026-05-07 21:47 63.45573 10.92359 39 ft 8 kts 227°
2026-05-07 21:48 63.45556 10.92233 37 ft 10 kts 268°
2026-05-07 21:48 63.45559 10.92080 38 ft 10 kts 270°
2026-05-07 21:48 63.45556 10.91929 38 ft 10 kts 270°
2026-05-07 21:48 63.45556 10.91783 38 ft 9 kts 270°
2026-05-07 21:49 63.45545 10.91668 37 ft 6 kts 208°
2026-05-07 21:49 63.45512 10.91664 38 ft 3 kts 181°
2026-05-07 21:49 63.45505 10.91664 38 ft 0 kts 180°
2026-05-07 21:49 63.45501 10.91664 38 ft 2 kts 180°
2026-05-07 21:50 63.45500 10.91663 38 ft 0 kts 180°